Regional Weather Roundup
Issued by NWS

Home | Current Version | Previous Version | Text Only | Print | Product List | Glossary Off
Versions: 1 2 3 4 5 6 7 8 9 10 11 12 13 14 15 16 17 18 19 20 21 22 23 24 25 26 27 28 29 30 31 32 33 34 35 36 37 38 39 40 41 42 43 44 45 46 47 48 49

000
ASUS45 KBOU 262007
RWRCO

WEATHER ROUNDUP FOR COLORADO
NATIONAL WEATHER SERVICE DENVER/BOULDER CO
100 PM MST THU FEB 26 2015

NOTE: "FAIR" INDICATES FEW OR NO CLOUDS BELOW 12000 FEET WITH NO
SIGNIFICANT WEATHER AND/OR OBSTRUCTIONS TO VISIBILITY.

COZ001>005-013-030-031-262100-
...NORTHWEST COLORADO...

CITY           SKY/WX    TMP DP  RH WIND       PRES   REMARKS
CRAIG          LGT SNOW  29  21  72 NW3       29.95F
HAYDEN         PTSUNNY   27  14  59 W7        29.93F WCI  19
MEEKER         CLOUDY    34  16  47 VRB3      29.90F
MOUNT WERNER   NOT AVBL
STEAMBOAT SPGS PTSUNNY   26  13  56 CALM      29.92F
WALDEN         CLOUDY    23   9  54 E6        29.88F WCI  16
$$

COZ006>008-011-262100-
...WEST CENTRAL VALLEYS...

CITY           SKY/WX    TMP DP  RH WIND       PRES   REMARKS
GRAND JUNCTION PTSUNNY   40  19  43 VRB7      29.91F
MONTROSE       PTSUNNY   30  20  66 CALM      29.94F
EAGLE          MOSUNNY   36  10  35 CALM      29.91F
RIFLE          PTSUNNY   38   9  30 CALM      29.91F
DELTA          PTSUNNY   37  26  64 S3        29.94F
NUCLA          PTSUNNY   36  14  41 W5        29.95F
$$

COZ017>023-064>068-262100-
...SOUTHWEST COLORADO...

CITY           SKY/WX    TMP DP  RH WIND       PRES   REMARKS
DURANGO        CLOUDY    32  22  66 E7        29.94F WCI  26
CORTEZ         SUNNY     38  22  52 SW7       29.93F
PAGOSA SPRINGS CLOUDY    33  20  58 SW5       29.94F WCI  28
TELLURIDE      CLOUDY    29  -2  26 CALM      29.90F
WOLF CREEK PAS CLOUDY    12   9  85 SW13G21   29.91F WCI  -3
$$

COZ009-010-012-014-032>034-037-058>063-262100-
...CENTRAL COLORADO...

CITY           SKY/WX    TMP DP  RH WIND       PRES   REMARKS
ASPEN          PTSUNNY   30   4  33 VRB3      29.86F
BUENA VISTA    PTSUNNY   21  10  62 CALM      29.89F
COPPER MTN     CLOUDY    14   5  67 W18G24    29.79F WCI  -3
BERTHOUD PASS  SNOW       3  -4  72 W18       29.76F VSB 1/2 WCI -17
COTTONWOOD PAS CLOUDY    21  14  73 CALM      29.84F
GUNNISON       CLOUDY    21  10  63 E3        29.94F
KREMMLING      CLOUDY    25  16  68 CALM      29.92F
LEADVILLE      CLOUDY    18   4  54 VRB3      29.81F
MONARCH PASS     N/A      9   3  78 MISG      29.92F
SALIDA         PTSUNNY   26  15  63 SE12G17   29.98F WCI  16
SUNLIGHT       CLOUDY    19  10  68 CALM        N/A
WILKERSON PASS CLOUDY    16  12  86 SW6       29.84F WCI   7
$$

COZ069>075-262100-
...SAN LUIS VALLEY/SANGRE DE CRISTO MOUNTAINS...

CITY           SKY/WX    TMP DP  RH WIND       PRES   REMARKS
ALAMOSA        CLOUDY    27  17  66 CALM      29.93F
LA VETA PASS   LGT SNOW  27  18  69 S13G23    29.87F WCI  16
SAGUACHE       PTSUNNY   27  19  74 S8        29.93F WCI  18
$$

COZ035-036-038>040-262100-
...NORTHERN COLORADO FRONT RANGE...

CITY           SKY/WX    TMP DP  RH WIND       PRES   REMARKS
DENVER INTL AP CLOUDY    17  10  74 E9        30.12F WCI   6
DMNS CITY PARK   N/A     17   9  72 NE7G13    30.12F WCI   7
AURORA         LGT SNOW  16   9  73 E8        30.10F WCI   5
FRONT RANGE AP NOT AVBL
ERIE MUNI ARPT FLURRIES  18  11  74 NE8       30.14F WCI   8
BOULDER MUN AP LGT SNOW  19  12  73 NE7       30.13F WCI  10
CENTENNIAL     LGT SNOW  16  10  77 NE9       30.07F FOG     WCI   4
BROOMFIELD     LGT SNOW  18  10  73 NE7       30.11F WCI   8
FORT COLLINS   PTSUNNY   18  10  73 E9        30.17F WCI   6
LONGMONT       LGT SNOW  24  13  62 E7        30.17F WCI  16
$$

COZ041-046-047-076>085-087-088-262100-
...PIKES PEAK/PALMER DIVIDE AND SOUTHERN FOOTHILLS...

CITY           SKY/WX    TMP DP  RH WIND       PRES   REMARKS
COLO. SPRINGS  SNOW      15  11  83 SE20      30.07F VSB 1/2 WCI  -2
A. F. ACADEMY  LGT SNOW  14   9  79 SE14      30.02F WCI  -1
ELLICOTT       NOT AVBL
FALCON         LGT SNOW  15   8  73 S15       30.03F WCI  -1
FORT CARSON    NOT AVBL
LIMON          LGT SNOW  14  10  84 E10       30.14F FOG     WCI   1
MONUMENT HILL  FLURRIES  18   9  68 SW10      29.99F WCI   6
TRINIDAD       LGT SNOW  18  14  84 CALM      30.07F FOG
$$

COZ042>045-048>051-090-091-262100-
...NORTHEAST COLORADO...

CITY           SKY/WX    TMP DP  RH WIND       PRES   REMARKS
GREELEY ARPT   CLOUDY    19   7  58 E8        30.17F WCI   9
AKRON          LGT SNOW  14   9  80 E6        30.21S WCI   5
BURLINGTON     LGT SNOW  16   8  71 E6        30.25F WCI   7
WRAY           CLOUDY    19   5  56 CALM      30.31F
STERLING       CLOUDY    19   9  63 N3        30.26F HAZE
HOLYOKE        NOT AVBL
FORT MORGAN    CLOUDY    18   8  65 E7        30.22F WCI   9
$$

COZ086-089-092>099-262100-
...SOUTHEAST COLORADO...

CITY           SKY/WX    TMP DP  RH WIND       PRES   REMARKS
PUEBLO         LGT SNOW  18  13  80 SE13      30.17F WCI   5
LA JUNTA       CLOUDY    19  12  74 SE13      30.23F WCI   6
LAMAR          LGT SNOW  19  14  81 SE12      30.27F VSB 3/4 WCI   7
SPRINGFIELD      N/A     17  13  84 E6        30.22F WCI   9
$$



USA.gov is the U.S. government's official web portal to all federal, state and local government web resources and services.